Wind_Speed
8 8 8 8 8 8 9 11 13 14 15 17 17 19 21 22 19 15 12 9 5 5 6 9 7 7 4 6 6 6 8 12 12 11 7 5 6 2 4 9 11 12 8 3 23
11 10 10 11 11 10 11 12 14 15 16 17 19 20 21 23 23 19 12 10 4 5 7 7 8 9 7 6 5 9 11 16 8 11 9 8 11 11 7 9 14 13 10 10 20
12 12 12 13 13 11 12 13 14 15 17 19 19 21 21 22 19 4 6 6 5 9 11 12 9 7 9 7 7 7 15 14 12 14 11 13 13 12 12 12 17 17 17 19 23
14 14 15 14 14 13 13 14 15 15 17 18 19 20 21 18 7 2 8 13 16 19 13 11 10 11 8 9 5 11 17 15 18 13 14 14 17 16 16 18 8 9 17 24 28
14 15 15 16 15 15 15 15 15 15 17 19 18 19 18 12 18 17 23 21 16 13 10 11 12 10 12 6 9 14 17 16 17 19 19 19 22 21 25 21 13 8 17 26 28
14 12 15 16 16 16 16 16 15 16 17 18 20 20 13 20 11 8 10 13 18 15 16 12 10 11 14 16 12 12 16 20 21 25 23 21 23 20 27 20 13 14 19 23 28
14 12 14 13 14 15 15 15 16 16 18 15 18 20 15 30 19 20 26 29 27 17 20 18 16 14 7 12 13 14 17 18 20 23 20 21 22 24 29 23 18 18 19 22 26
13 11 9 10 9 12 12 14 16 15 11 16 17 18 14 24 28 22 19 20 19 18 21 20 18 19 21 16 16 16 18 18 17 7 11 10 17 14 14 17 22 19 17 19 24
13 13 12 12 13 14 12 11 14 18 23 21 18 11 17 14 10 5 4 5 6 7 9 5 11 14 12 18 16 16 17 18 17 14 14 11 15 1 1 10 17 20 17 18 20
17 17 17 17 16 16 17 21 24 19 15 12 10 5 17 8 5 5 5 8 6 5 4 9 10 9 13 15 17 18 19 15 14 7 7 9 13 12 15 12 17 17 17 17 20
14 14 13 12 12 10 7 4 6 5 2 10 5 10 10 6 14 8 3 6 10 14 16 17 13 17 24 21 22 19 16 19 18 19 14 18 18 19 20 23 19 21 22 20 22
6 6 5 3 1 2 4 4 3 4 10 17 25 26 29 25 21 32 22 15 14 18 18 17 21 23 20 21 20 21 22 22 19 20 15 16 21 18 19 18 24 23 25 23 24
4 3 1 3 1 2 5 6 7 10 7 13 7 7 4 6 13 20 12 14 22 23 21 23 13 7 21 21 18 23 22 20 20 18 21 23 26 24 19 17 25 26 28 28 26
5 5 5 1 3 1 5 2 7 7 5 2 3 3 2 2 6 9 5 12 11 17 20 21 25 24 18 20 18 23 19 20 18 16 17 3 11 11 10 15 16 20 23 25 28
5 5 6 7 5 3 6 1 4 2 6 3 3 1 6 5 11 3 5 6 14 14 11 10 11 13 24 25 17 23 18 15 15 15 18 22 13 14 12 12 12 12 13 16 19
4 4 4 1 6 8 7 3 1 5 8 3 1 1 2 3 3 9 3 2 6 10 18 22 21 8 10 11 18 19 16 19 18 14 17 19 17 11 9 2 8 11 14 13 12
5 5 3 2 3 6 5 7 4 7 3 4 0 3 1 4 5 7 6 10 8 6 8 7 18 22 10 9 1 8 8 5 8 8 15 4 10 13 10 13 12 11 13 15 17
5 6 5 3 7 8 10 6 8 1 5 1 3 7 1 4 4 4 2 4 11 8 4 6 3 9 17 10 17 9 6 5 6 10 11 3 7 6 12 12 12 12 13 16 20
6 7 4 3 6 10 8 9 5 4 3 4 7 5 4 3 3 1 3 3 4 13 4 6 3 6 12 14 6 10 21 11 10 14 8 11 14 13 13 9 10 13 16 17 18
5 4 2 6 8 11 7 13 9 6 2 3 5 2 5 1 4 4 1 2 5 6 6 5 6 3 5 9 10 7 12 6 8 7 9 13 20 9 11 8 11 11 14 19 20
4 1 1 5 10 9 5 7 6 6 5 5 6 9 8 6 6 5 2 6 6 5 4 3 3 5 11 2 6 6 2 3 4 4 4 8 8 16 17 15 11 13 19 19 23
1 1 0 12 6 3 6 4 1 6 4 7 7 10 10 8 10 8 8 4 4 7 9 4 4 8 9 11 10 9 1 3 4 5 3 5 2 13 9 20 17 20 26 25 23
2 2 2 7 3 5 2 4 5 6 6 3 6 8 6 13 12 12 12 0 2 4 3 5 2 9 10 8 3 1 3 3 1 3 2 3 4 4 25 20 26 26 26 24 23
2 2 2 5 1 2 3 6 7 6 10 12 9 9 10 11 11 8 9 6 3 5 2 3 11 14 15 18 15 18 14 11 9 5 9 10 22 24 24 25 26 27 25 23 24
3 2 1 2 2 1 2 2 5 4 6 4 6 14 14 13 15 17 15 13 11 13 13 11 15 16 19 19 17 18 19 18 15 16 13 22 22 27 22 22 24 26 25 23 21
5 2 1 3 1 3 5 2 2 1 3 1 3 4 3 11 10 9 4 4 8 5 9 6 6 7 12 14 15 20 20 20 19 20 21 25 24 26 26 24 23 24 24 23 22
6 5 1 2 2 4 3 2 1 2 1 2 2 2 1 4 4 4 7 10 11 11 11 9 7 6 16 14 14 13 18 21 22 23 20 18 22 24 23 19 23 30 27 23 21
Wind_Direction
257 266 273 278 284 291 301 308 311 313 316 317 318 320 322 321 318 318 304 246 244 290 316 335 317 321 288 236 221 230 256 258 257 255 272 197 231 203 268 237 208 212 237 224 186
254 260 269 275 282 293 301 306 311 314 314 314 316 319 321 324 321 307 255 233 243 300 322 324 318 326 273 248 223 233 254 271 306 274 254 253 260 278 232 223 238 230 220 170 190
260 265 269 275 281 289 293 299 305 312 315 314 315 316 321 328 322 301 212 211 266 308 318 317 306 311 290 268 231 234 256 293 261 260 257 265 267 268 251 251 245 245 213 185 187
260 266 270 272 279 283 288 294 298 306 308 311 316 317 320 326 297 339 263 277 284 294 300 295 292 294 282 268 241 262 255 270 270 274 262 258 278 260 259 263 282 254 222 202 196
261 273 275 281 285 284 286 287 291 293 302 306 308 313 321 291 269 275 278 281 279 281 273 281 282 278 266 271 267 259 270 274 272 265 264 268 259 266 267 254 248 251 195 205 208
268 269 277 277 282 288 287 286 288 291 297 300 302 306 309 272 272 266 269 270 283 281 275 265 264 289 286 275 266 291 284 277 272 269 265 258 259 249 253 255 238 224 213 210 210
246 256 272 279 286 287 284 281 287 288 294 297 303 300 283 261 275 277 276 270 273 271 272 261 257 250 281 264 262 271 277 278 268 261 255 254 255 248 247 248 241 229 223 216 215
239 241 253 269 278 277 279 278 280 282 290 301 297 291 265 285 284 285 280 272 269 267 259 262 244 247 249 257 261 261 268 274 271 260 231 229 266 265 242 235 242 237 231 225 219
222 228 229 246 257 263 266 269 273 284 288 287 280 256 269 280 292 286 297 256 272 267 250 255 202 223 217 235 253 241 259 261 266 261 266 238 271 244 210 225 244 244 241 234 229
235 248 258 265 264 271 277 284 288 286 280 276 243 250 248 259 285 273 273 271 271 258 202 202 206 218 226 223 232 245 238 251 260 259 245 249 256 271 258 244 255 248 242 237 234
246 252 263 274 283 290 292 303 281 250 264 236 218 238 270 263 305 262 273 298 265 252 251 208 230 222 233 232 249 268 266 264 265 267 270 271 271 269 265 259 250 255 250 242 238
227 233 243 268 275 90 78 113 71 350 302 270 261 258 263 275 280 269 262 271 246 246 241 239 237 244 245 255 249 252 255 259 266 272 278 271 271 272 261 256 254 250 249 242 241
230 245 205 356 6 134 113 83 13 354 266 288 250 266 259 231 248 278 235 241 237 251 242 243 241 247 246 248 246 246 250 258 265 283 283 277 270 261 247 258 252 244 247 249 242
260 265 254 158 186 135 142 95 0 337 277 199 204 122 64 258 256 277 283 226 221 248 239 254 260 255 241 241 239 256 253 257 269 266 272 168 286 288 257 251 242 247 244 246 248
271 262 245 190 177 169 183 293 351 5 283 81 100 72 318 222 324 64 338 207 256 248 226 227 241 239 239 244 236 256 267 266 256 259 272 261 261 272 237 245 257 267 270 267 264
359 350 316 253 197 224 240 268 168 237 236 139 123 341 346 88 4 329 331 298 267 269 254 261 272 250 281 270 258 246 260 261 256 258 255 249 245 266 265 241 84 48 37 23 7
2 346 338 275 209 210 178 151 206 233 98 134 158 349 23 21 42 8 74 61 20 309 240 265 242 245 244 263 4 238 207 229 223 217 241 222 230 237 128 74 68 49 41 29 26
347 339 329 268 215 189 160 188 230 270 256 276 273 289 285 23 74 27 211 36 25 356 327 327 218 355 11 318 287 214 224 197 271 248 255 46 236 175 100 93 74 49 39 29 27
333 326 297 243 208 179 186 217 225 239 289 276 266 266 160 143 313 229 83 127 44 34 66 343 255 348 24 342 332 261 232 241 252 258 262 254 258 153 139 90 57 40 34 23 16
321 317 248 213 181 166 196 224 235 237 230 258 276 250 263 354 285 338 256 131 135 43 20 9 296 154 15 2 23 6 318 251 213 242 237 242 243 233 150 77 33 25 20 11 3
345 176 275 176 158 183 211 218 227 229 268 245 249 261 261 278 288 294 279 178 189 174 143 308 242 293 312 146 304 330 341 318 302 350 312 274 216 106 104 47 9 5 358 345 350
357 161 252 153 178 211 216 225 254 223 225 246 265 254 256 265 268 263 257 227 187 281 276 155 257 272 280 298 319 284 358 34 348 358 304 280 330 151 21 348 345 342 337 334 330
117 119 158 165 206 219 187 233 264 244 234 244 247 242 254 253 258 242 261 107 209 262 273 168 227 300 285 183 120 239 182 158 151 219 258 305 293 339 319 315 320 326 323 324 320
107 136 85 202 202 271 241 254 249 243 252 245 260 251 243 240 233 257 237 219 249 254 198 224 261 258 269 287 306 285 279 260 281 255 277 250 281 287 303 310 316 317 316 316 312
93 100 117 174 191 151 258 288 243 236 229 243 241 242 250 256 251 250 259 260 259 262 252 245 255 261 266 276 291 284 282 281 270 262 263 279 279 283 293 299 299 302 304 302 302
118 160 160 134 273 220 184 204 354 81 328 192 290 53 336 260 255 278 328 286 262 224 244 229 258 281 273 275 268 270 272 273 274 269 267 272 281 280 283 292 298 304 302 300 301
153 149 122 162 178 231 214 234 209 318 114 136 93 313 201 235 224 252 280 275 277 280 270 260 262 253 267 275 274 265 263 269 270 270 272 274 277 282 292 295 304 309 304 300 296
Height
1530 1530 1529 1530 1529 1528 1528 1528 1528 1527 1525 1523 1522 1521 1518 1515 1514 1513 1512 1511 1509 1509 1508 1507 1507 1505 1502 1501 1501 1499 1493 1484 1478 1483 1476 1481 1482 1483 1484 1484 1486 1486 1486 1486 1486
1527 1526 1527 1528 1527 1526 1526 1526 1525 1525 1524 1522 1520 1519 1517 1514 1512 1509 1508 1506 1507 1507 1507 1507 1505 1504 1500 1497 1497 1493 1486 1477 1476 1478 1478 1479 1480 1480 1483 1481 1483 1483 1483 1485 1484
1525 1524 1524 1525 1525 1524 1523 1523 1523 1523 1521 1520 1518 1517 1516 1514 1512 1507 1505 1505 1504 1505 1505 1504 1504 1502 1498 1496 1492 1485 1486 1477 1479 1480 1480 1478 1478 1476 1477 1473 1475 1476 1481 1481 1483
1521 1521 1522 1521 1522 1522 1520 1520 1520 1519 1519 1517 1516 1514 1514 1513 1512 1506 1505 1504 1503 1502 1503 1503 1502 1499 1497 1491 1491 1489 1482 1482 1480 1479 1480 1478 1476 1474 1473 1471 1471 1472 1475 1478 1477
1518 1518 1519 1518 1519 1518 1518 1517 1517 1515 1515 1514 1513 1512 1511 1511 1505 1507 1502 1500 1501 1500 1501 1502 1500 1497 1492 1491 1490 1486 1481 1479 1479 1479 1477 1477 1474 1472 1467 1468 1468 1470 1471 1473 1475
1515 1515 1516 1515 1514 1514 1514 1515 1514 1513 1511 1511 1510 1511 1512 1504 1496 1498 1498 1499 1499 1498 1498 1498 1498 1497 1494 1490 1488 1482 1481 1477 1476 1473 1472 1471 1467 1466 1460 1463 1465 1466 1467 1468 1471
1512 1512 1513 1512 1511 1511 1510 1510 1511 1508 1509 1506 1507 1508 1508 1493 1493 1494 1493 1492 1492 1493 1493 1494 1494 1495 1491 1488 1485 1483 1479 1471 1467 1463 1462 1462 1458 1455 1456 1458 1459 1460 1461 1463 1465
1508 1508 1509 1510 1508 1509 1507 1506 1506 1505 1502 1505 1503 1504 1499 1490 1485 1484 1486 1485 1486 1487 1486 1488 1490 1489 1488 1486 1483 1480 1475 1471 1456 1458 1458 1459 1452 1442 1448 1451 1454 1454 1457 1459 1461
1505 1505 1503 1505 1505 1506 1504 1503 1502 1500 1499 1498 1500 1500 1493 1484 1483 1480 1481 1483 1484 1484 1483 1482 1486 1484 1483 1480 1476 1468 1469 1458 1452 1450 1453 1454 1447 1440 1451 1452 1449 1448 1451 1454 1457
1501 1502 1501 1503 1502 1500 1500 1500 1499 1494 1494 1494 1495 1500 1485 1484 1482 1478 1479 1479 1482 1483 1482 1482 1480 1476 1474 1469 1465 1455 1456 1459 1457 1447 1454 1448 1447 1444 1446 1445 1445 1444 1443 1446 1450
1498 1498 1499 1498 1500 1498 1498 1499 1500 1496 1489 1490 1485 1482 1480 1481 1483 1481 1478 1477 1478 1481 1474 1473 1471 1464 1455 1458 1454 1451 1453 1453 1448 1443 1448 1447 1444 1440 1441 1439 1438 1438 1438 1439 1442
1496 1496 1496 1497 1496 1497 1495 1497 1498 1497 1492 1484 1479 1478 1477 1479 1479 1473 1477 1480 1474 1467 1467 1465 1461 1453 1452 1454 1454 1456 1454 1450 1444 1443 1447 1444 1437 1433 1433 1432 1431 1430 1430 1431 1434
1494 1495 1495 1496 1495 1497 1495 1495 1496 1494 1494 1479 1475 1474 1473 1474 1476 1469 1466 1467 1467 1466 1461 1457 1443 1449 1450 1452 1457 1453 1451 1448 1447 1443 1440 1439 1429 1422 1418 1423 1422 1421 1422 1423 1425
1492 1492 1493 1492 1496 1495 1495 1495 1495 1494 1487 1472 1473 1469 1472 1474 1474 1469 1464 1466 1462 1457 1459 1451 1448 1445 1446 1448 1450 1449 1445 1446 1449 1449 1444 1433 1431 1413 1414 1413 1414 1415 1414 1415 1419
1491 1491 1489 1488 1488 1493 1496 1494 1494 1494 1483 1472 1471 1472 1470 1470 1471 1467 1465 1464 1462 1455 1455 1440 1443 1445 1442 1440 1441 1439 1442 1446 1444 1442 1440 1433 1434 1411 1407 1411 1406 1407 1409 1411 1413
1489 1488 1489 1487 1485 1489 1491 1492 1495 1492 1476 1466 1469 1469 1466 1465 1467 1466 1464 1465 1463 1458 1453 1444 1440 1443 1441 1439 1438 1437 1444 1444 1441 1444 1438 1426 1427 1407 1398 1398 1404 1417 1419 1420 1418
1487 1487 1485 1485 1489 1489 1490 1493 1491 1485 1467 1468 1470 1468 1465 1466 1465 1465 1464 1466 1469 1461 1443 1440 1439 1441 1445 1445 1444 1440 1450 1453 1453 1448 1418 1401 1410 1402 1403 1415 1420 1421 1421 1421 1419
1485 1484 1482 1483 1484 1488 1488 1491 1491 1472 1470 1472 1469 1467 1463 1465 1467 1467 1463 1473 1477 1471 1468 1464 1445 1446 1452 1449 1445 1448 1452 1449 1440 1418 1406 1415 1410 1396 1413 1419 1421 1425 1423 1423 1419
1483 1483 1482 1482 1484 1484 1490 1485 1471 1468 1471 1471 1467 1463 1460 1465 1467 1467 1476 1482 1486 1480 1482 1471 1461 1461 1463 1463 1455 1437 1437 1437 1447 1444 1448 1421 1402 1411 1412 1417 1421 1424 1423 1423 1421
1479 1480 1481 1481 1483 1484 1484 1476 1472 1475 1473 1473 1469 1466 1463 1465 1466 1466 1468 1481 1483 1481 1481 1481 1469 1461 1464 1468 1467 1466 1461 1445 1442 1439 1429 1402 1393 1389 1404 1417 1422 1422 1423 1422 1421
1479 1480 1479 1479 1483 1485 1480 1476 1472 1476 1475 1472 1467 1468 1466 1468 1473 1469 1467 1473 1477 1482 1483 1483 1484 1460 1456 1466 1471 1468 1465 1464 1460 1452 1433 1405 1387 1396 1415 1422 1426 1425 1422 1421 1419
1480 1480 1481 1478 1485 1481 1479 1477 1478 1473 1472 1470 1472 1469 1467 1468 1468 1469 1468 1471 1474 1474 1472 1476 1476 1467 1457 1458 1461 1456 1465 1468 1460 1465 1464 1453 1410 1412 1417 1423 1424 1423 1420 1418 1418
1478 1479 1481 1480 1479 1480 1478 1479 1478 1475 1471 1470 1470 1469 1467 1467 1468 1464 1467 1471 1474 1472 1470 1475 1471 1470 1449 1448 1461 1465 1466 1468 1472 1470 1460 1458 1427 1418 1423 1420 1422 1418 1417 1416 1415
1479 1479 1480 1482 1481 1478 1477 1478 1476 1477 1472 1472 1472 1470 1469 1466 1468 1464 1464 1469 1474 1472 1475 1475 1468 1467 1461 1450 1447 1450 1451 1454 1458 1463 1452 1448 1436 1428 1424 1420 1416 1415 1415 1412 1408
1479 1479 1479 1477 1480 1480 1481 1480 1475 1474 1473 1472 1469 1468 1467 1467 1464 1461 1463 1465 1469 1471 1470 1469 1466 1460 1452 1450 1451 1451 1447 1448 1452 1451 1453 1433 1434 1419 1423 1421 1417 1413 1411 1409 1406
1475 1480 1481 1476 1481 1477 1481 1478 1478 1478 1476 1472 1472 1473 1474 1469 1468 1466 1469 1467 1464 1465 1465 1464 1465 1463 1463 1456 1453 1450 1446 1442 1441 1438 1437 1432 1427 1417 1416 1413 1412 1409 1407 1404 1402
1474 1479 1479 1481 1478 1478 1477 1477 1479 1477 1478 1476 1476 1475 1476 1476 1474 1474 1474 1472 1470 1467 1464 1464 1462 1464 1455 1450 1451 1455 1445 1438 1432 1428 1427 1428 1419 1410 1406 1408 1406 1403 1401 1398 1398